QPF
0.04 0.04 0.06 0.07 0.05 0.04 0.04 0.04 0.04 0.05 0.07 0.08 0.10 0.09 0.08 0.08 0.08 0.10 0.09 0.08 0.08 0.08 0.08 0.08 0.09 0.10 0.09 0.08 0.06 0.05 0.04 0.04 0.05 0.04 0.05 0.07 0.07 0.07 0.07 0.06 0.06 0.06 0.05
0.04 0.05 0.05 0.06 0.07 0.05 0.04 0.03 0.03 0.03 0.05 0.06 0.08 0.08 0.07 0.08 0.08 0.08 0.08 0.08 0.09 0.09 0.07 0.07 0.06 0.06 0.08 0.08 0.08 0.06 0.05 0.04 0.05 0.05 0.06 0.08 0.10 0.09 0.09 0.08 0.08 0.07 0.06
0.03 0.04 0.06 0.07 0.08 0.06 0.04 0.04 0.04 0.04 0.04 0.04 0.07 0.08 0.07 0.07 0.08 0.09 0.09 0.09 0.08 0.08 0.07 0.06 0.05 0.05 0.06 0.07 0.07 0.06 0.06 0.05 0.05 0.06 0.08 0.09 0.10 0.10 0.11 0.09 0.08 0.08 0.07
0.02 0.03 0.04 0.06 0.07 0.06 0.05 0.04 0.05 0.04 0.04 0.04 0.04 0.06 0.07 0.07 0.08 0.09 0.11 0.11 0.11 0.09 0.08 0.06 0.05 0.05 0.05 0.06 0.07 0.06 0.06 0.06 0.07 0.08 0.09 0.09 0.09 0.10 0.09 0.09 0.08 0.07 0.07
0.02 0.03 0.04 0.04 0.04 0.05 0.04 0.04 0.05 0.04 0.04 0.05 0.06 0.07 0.08 0.08 0.09 0.09 0.09 0.10 0.11 0.10 0.07 0.06 0.05 0.05 0.06 0.06 0.06 0.05 0.06 0.07 0.07 0.08 0.09 0.09 0.07 0.08 0.08 0.07 0.06 0.06 0.07
0.03 0.04 0.04 0.03 0.03 0.04 0.04 0.04 0.05 0.04 0.04 0.07 0.08 0.09 0.08 0.08 0.09 0.10 0.08 0.09 0.10 0.11 0.10 0.07 0.06 0.06 0.05 0.07 0.07 0.06 0.06 0.07 0.06 0.06 0.07 0.07 0.05 0.05 0.05 0.06 0.06 0.06 0.06
0.02 0.03 0.03 0.03 0.03 0.03 0.04 0.05 0.05 0.05 0.04 0.07 0.09 0.09 0.09 0.08 0.08 0.08 0.08 0.07 0.09 0.10 0.10 0.09 0.08 0.07 0.06 0.05 0.06 0.08 0.09 0.09 0.07 0.07 0.07 0.06 0.05 0.05 0.06 0.06 0.06 0.06 0.05
0.01 0.02 0.02 0.02 0.02 0.03 0.03 0.04 0.04 0.06 0.07 0.07 0.08 0.08 0.09 0.09 0.08 0.08 0.07 0.07 0.08 0.08 0.07 0.06 0.07 0.07 0.08 0.08 0.08 0.08 0.09 0.10 0.09 0.08 0.08 0.07 0.06 0.06 0.06 0.07 0.07 0.08 0.09
0.01 0.01 0.01 0.02 0.02 0.02 0.03 0.03 0.04 0.05 0.08 0.09 0.09 0.08 0.08 0.08 0.09 0.08 0.07 0.08 0.08 0.08 0.07 0.06 0.05 0.05 0.07 0.08 0.09 0.10 0.12 0.11 0.10 0.10 0.10 0.11 0.10 0.08 0.08 0.08 0.08 0.08 0.08
0.01 0.01 0.02 0.02 0.02 0.02 0.02 0.02 0.03 0.04 0.06 0.10 0.10 0.09 0.09 0.08 0.09 0.08 0.08 0.07 0.07 0.07 0.08 0.08 0.07 0.06 0.06 0.07 0.08 0.11 0.12 0.11 0.11 0.12 0.13 0.13 0.12 0.10 0.10 0.08 0.07 0.07 0.06
0.01 0.01 0.02 0.02 0.02 0.02 0.02 0.02 0.02 0.04 0.06 0.08 0.08 0.08 0.08 0.09 0.09 0.09 0.10 0.08 0.07 0.07 0.07 0.08 0.09 0.08 0.06 0.07 0.09 0.10 0.11 0.10 0.09 0.10 0.11 0.10 0.10 0.10 0.09 0.09 0.08 0.07 0.06
0.01 0.02 0.02 0.02 0.02 0.01 0.02 0.02 0.02 0.04 0.06 0.07 0.07 0.08 0.08 0.08 0.10 0.10 0.11 0.10 0.08 0.06 0.05 0.07 0.09 0.09 0.07 0.06 0.07 0.09 0.10 0.10 0.09 0.09 0.10 0.10 0.09 0.09 0.08 0.08 0.08 0.07 0.07
0.02 0.02 0.03 0.03 0.03 0.02 0.02 0.03 0.03 0.05 0.06 0.05 0.05 0.06 0.08 0.09 0.09 0.11 0.11 0.10 0.09 0.08 0.06 0.07 0.08 0.09 0.09 0.07 0.07 0.08 0.08 0.08 0.09 0.09 0.09 0.09 0.08 0.07 0.07 0.07 0.07 0.07 0.07
0.02 0.03 0.03 0.03 0.04 0.03 0.03 0.03 0.03 0.04 0.05 0.05 0.05 0.05 0.06 0.08 0.09 0.11 0.11 0.09 0.09 0.09 0.09 0.08 0.08 0.09 0.10 0.09 0.08 0.09 0.09 0.10 0.10 0.09 0.08 0.08 0.08 0.08 0.08 0.06 0.06 0.06 0.07
0.02 0.03 0.03 0.04 0.04 0.03 0.03 0.03 0.03 0.04 0.04 0.06 0.06 0.06 0.07 0.07 0.07 0.09 0.11 0.09 0.08 0.10 0.10 0.09 0.10 0.12 0.12 0.12 0.12 0.12 0.12 0.11 0.11 0.09 0.07 0.07 0.07 0.07 0.07 0.06 0.05 0.06 0.06
0.03 0.04 0.05 0.05 0.04 0.03 0.03 0.03 0.03 0.03 0.04 0.05 0.07 0.07 0.07 0.06 0.07 0.07 0.09 0.08 0.08 0.10 0.11 0.10 0.11 0.12 0.11 0.12 0.13 0.13 0.13 0.11 0.09 0.07 0.06 0.06 0.06 0.05 0.05 0.05 0.05 0.06 0.06
0.05 0.06 0.05 0.05 0.03 0.03 0.02 0.03 0.03 0.03 0.03 0.05 0.06 0.06 0.06 0.06 0.06 0.06 0.06 0.07 0.08 0.09 0.09 0.10 0.11 0.11 0.10 0.10 0.11 0.12 0.12 0.10 0.08 0.07 0.06 0.06 0.06 0.06 0.06 0.06 0.06 0.06 0.05
0.05 0.05 0.05 0.04 0.03 0.02 0.02 0.03 0.03 0.03 0.05 0.06 0.06 0.06 0.06 0.06 0.06 0.06 0.05 0.05 0.07 0.08 0.08 0.09 0.09 0.10 0.10 0.11 0.12 0.11 0.09 0.09 0.09 0.09 0.08 0.08 0.08 0.08 0.07 0.06 0.05 0.05 0.04
0.05 0.05 0.04 0.03 0.02 0.02 0.02 0.02 0.02 0.03 0.04 0.05 0.05 0.05 0.06 0.06 0.05 0.06 0.05 0.05 0.06 0.06 0.07 0.08 0.08 0.09 0.11 0.12 0.12 0.10 0.08 0.08 0.08 0.10 0.10 0.09 0.09 0.08 0.07 0.06 0.05 0.04 0.04
0.04 0.05 0.04 0.03 0.02 0.02 0.02 0.02 0.02 0.03 0.04 0.04 0.04 0.05 0.06 0.06 0.05 0.05 0.05 0.05 0.05 0.05 0.06 0.07 0.08 0.09 0.10 0.11 0.11 0.09 0.08 0.08 0.08 0.09 0.09 0.09 0.09 0.08 0.08 0.06 0.05 0.04 0.04
0.04 0.04 0.03 0.03 0.03 0.03 0.03 0.02 0.02 0.04 0.04 0.04 0.04 0.05 0.06 0.05 0.04 0.05 0.06 0.05 0.05 0.06 0.06 0.06 0.06 0.08 0.09 0.09 0.09 0.09 0.09 0.08 0.08 0.08 0.09 0.09 0.09 0.08 0.07 0.06 0.05 0.05 0.04
0.04 0.04 0.04 0.03 0.03 0.03 0.02 0.02 0.03 0.04 0.04 0.04 0.04 0.04 0.04 0.04 0.04 0.04 0.05 0.06 0.06 0.06 0.06 0.05 0.06 0.06 0.06 0.06 0.07 0.07 0.07 0.08 0.07 0.07 0.08 0.08 0.08 0.08 0.07 0.06 0.05 0.05 0.04
0.04 0.04 0.04 0.04 0.03 0.03 0.02 0.02 0.03 0.03 0.03 0.03 0.03 0.04 0.05 0.05 0.05 0.04 0.05 0.06 0.07 0.06 0.05 0.05 0.05 0.05 0.05 0.05 0.05 0.05 0.05 0.05 0.06 0.06 0.06 0.06 0.07 0.07 0.07 0.07 0.05 0.05 0.04
0.04 0.03 0.03 0.03 0.03 0.02 0.02 0.02 0.02 0.03 0.03 0.03 0.04 0.04 0.05 0.05 0.06 0.05 0.05 0.05 0.05 0.05 0.05 0.05 0.04 0.04 0.04 0.03 0.03 0.03 0.03 0.04 0.04 0.04 0.04 0.05 0.05 0.05 0.05 0.05 0.06 0.05 0.04
0.04 0.04 0.03 0.03 0.02 0.02 0.01 0.01 0.02 0.03 0.04 0.04 0.04 0.05 0.06 0.06 0.07 0.06 0.04 0.03 0.03 0.04 0.04 0.03 0.03 0.03 0.03 0.03 0.02 0.02 0.03 0.03 0.03 0.03 0.03 0.04 0.04 0.04 0.04 0.04 0.05 0.04 0.03
0.04 0.04 0.03 0.03 0.03 0.02 0.01 0.01 0.02 0.03 0.04 0.04 0.05 0.06 0.06 0.07 0.06 0.05 0.04 0.03 0.03 0.03 0.03 0.02 0.02 0.02 0.03 0.03 0.03 0.02 0.03 0.03 0.03 0.03 0.03 0.03 0.03 0.03 0.04 0.04 0.03 0.02 0.02
MSLP
1009.56 1009.84 1010.08 1010.24 1010.31 1010.30 1010.24 1010.17 1010.12 1010.14 1010.21 1010.34 1010.49 1010.62 1010.68 1010.66 1010.55 1010.35 1010.08 1009.79 1009.49 1009.20 1008.92 1008.64 1008.32 1007.92 1007.41 1006.75 1005.94 1005.01 1003.98 1002.92 1001.87 1000.87 999.99 999.22 998.60 998.09 997.71 997.42 997.22 997.10 997.06
1008.95 1009.21 1009.44 1009.59 1009.66 1009.64 1009.59 1009.53 1009.50 1009.51 1009.59 1009.70 1009.82 1009.92 1009.95 1009.89 1009.74 1009.51 1009.22 1008.91 1008.59 1008.28 1007.98 1007.67 1007.30 1006.85 1006.28 1005.57 1004.72 1003.75 1002.70 1001.63 1000.59 999.64 998.81 998.11 997.56 997.14 996.83 996.61 996.46 996.37 996.35
1008.41 1008.65 1008.85 1008.98 1009.02 1009.00 1008.93 1008.86 1008.82 1008.82 1008.86 1008.94 1009.02 1009.07 1009.06 1008.97 1008.80 1008.56 1008.28 1007.97 1007.67 1007.36 1007.05 1006.71 1006.30 1005.78 1005.13 1004.33 1003.38 1002.33 1001.22 1000.11 999.06 998.13 997.35 996.74 996.29 995.99 995.80 995.70 995.66 995.67 995.74
1007.94 1008.17 1008.33 1008.42 1008.42 1008.36 1008.27 1008.16 1008.09 1008.05 1008.05 1008.08 1008.11 1008.11 1008.07 1007.96 1007.79 1007.57 1007.31 1007.04 1006.77 1006.49 1006.18 1005.81 1005.34 1004.73 1003.96 1003.03 1001.95 1000.77 999.55 998.37 997.29 996.36 995.64 995.12 994.80 994.65 994.63 994.71 994.85 995.03 995.24
1007.56 1007.74 1007.85 1007.88 1007.83 1007.72 1007.58 1007.44 1007.31 1007.23 1007.18 1007.16 1007.15 1007.11 1007.04 1006.93 1006.77 1006.59 1006.38 1006.17 1005.94 1005.69 1005.37 1004.96 1004.42 1003.70 1002.78 1001.69 1000.44 999.10 997.76 996.48 995.34 994.42 993.75 993.34 993.17 993.20 993.40 993.70 994.06 994.46 994.88
1007.20 1007.33 1007.37 1007.34 1007.22 1007.06 1006.86 1006.68 1006.51 1006.39 1006.30 1006.25 1006.20 1006.14 1006.06 1005.96 1005.84 1005.70 1005.55 1005.39 1005.20 1004.96 1004.63 1004.17 1003.52 1002.67 1001.60 1000.32 998.90 997.40 995.92 994.54 993.37 992.45 991.85 991.55 991.55 991.79 992.22 992.76 993.38 994.03 994.67
1006.82 1006.87 1006.84 1006.73 1006.55 1006.33 1006.10 1005.88 1005.70 1005.55 1005.44 1005.37 1005.31 1005.25 1005.18 1005.11 1005.02 1004.92 1004.82 1004.70 1004.54 1004.30 1003.93 1003.39 1002.63 1001.64 1000.41 998.97 997.38 995.75 994.16 992.72 991.53 990.66 990.14 989.98 990.16 990.60 991.25 992.04 992.89 993.77 994.64
1006.33 1006.31 1006.20 1006.02 1005.79 1005.53 1005.27 1005.04 1004.86 1004.72 1004.62 1004.55 1004.51 1004.47 1004.42 1004.38 1004.33 1004.27 1004.20 1004.10 1003.94 1003.66 1003.24 1002.61 1001.74 1000.61 999.24 997.67 995.98 994.26 992.63 991.19 990.04 989.25 988.85 988.84 989.18 989.81 990.66 991.64 992.69 993.75 994.79
1005.70 1005.59 1005.41 1005.17 1004.90 1004.63 1004.38 1004.16 1004.00 1003.90 1003.83 1003.80 1003.79 1003.78 1003.77 1003.76 1003.74 1003.71 1003.65 1003.54 1003.35 1003.02 1002.52 1001.80 1000.83 999.60 998.14 996.50 994.77 993.04 991.45 990.09 989.04 988.38 988.13 988.28 988.77 989.55 990.54 991.65 992.81 993.97 995.09
1004.89 1004.71 1004.47 1004.19 1003.91 1003.65 1003.42 1003.25 1003.14 1003.09 1003.08 1003.09 1003.13 1003.16 1003.19 1003.20 1003.20 1003.18 1003.11 1002.98 1002.74 1002.35 1001.78 1000.97 999.92 998.64 997.14 995.50 993.81 992.17 990.69 989.48 988.60 988.11 988.03 988.33 988.96 989.85 990.90 992.06 993.24 994.41 995.53
1003.94 1003.70 1003.42 1003.13 1002.86 1002.63 1002.45 1002.34 1002.29 1002.30 1002.35 1002.42 1002.49 1002.56 1002.62 1002.66 1002.67 1002.65 1002.56 1002.40 1002.11 1001.66 1001.02 1000.16 999.07 997.77 996.30 994.73 993.15 991.67 990.38 989.37 988.71 988.42 988.52 988.96 989.69 990.62 991.69 992.81 993.94 995.03 996.06
1002.91 1002.63 1002.34 1002.07 1001.82 1001.64 1001.52 1001.47 1001.49 1001.55 1001.65 1001.76 1001.87 1001.97 1002.06 1002.11 1002.13 1002.10 1002.00 1001.80 1001.47 1000.98 1000.30 999.42 998.33 997.06 995.67 994.22 992.81 991.53 990.47 989.70 989.26 989.18 989.45 990.01 990.79 991.74 992.76 993.80 994.81 995.76 996.66
1001.89 1001.61 1001.33 1001.09 1000.89 1000.76 1000.70 1000.70 1000.76 1000.86 1000.99 1001.13 1001.26 1001.38 1001.48 1001.55 1001.57 1001.55 1001.44 1001.23 1000.89 1000.38 999.69 998.81 997.76 996.56 995.28 993.98 992.76 991.70 990.87 990.33 990.12 990.22 990.62 991.27 992.08 993.00 993.94 994.86 995.74 996.54 997.28
1000.99 1000.72 1000.47 1000.27 1000.13 1000.05 1000.03 1000.07 1000.16 1000.27 1000.40 1000.54 1000.68 1000.80 1000.91 1000.99 1001.04 1001.03 1000.94 1000.74 1000.41 999.91 999.25 998.41 997.41 996.30 995.14 994.00 992.96 992.10 991.47 991.13 991.09 991.34 991.84 992.53 993.35 994.21 995.08 995.89 996.63 997.30 997.91
1000.26 1000.02 999.82 999.67 999.58 999.54 999.55 999.60 999.68 999.78 999.90 1000.02 1000.14 1000.26 1000.38 1000.48 1000.55 1000.58 1000.53 1000.37 1000.08 999.63 999.02 998.23 997.31 996.30 995.25 994.24 993.34 992.64 992.16 991.97 992.05 992.38 992.93 993.64 994.44 995.26 996.04 996.77 997.42 998.00 998.54
999.72 999.53 999.38 999.28 999.23 999.21 999.23 999.27 999.33 999.40 999.48 999.57 999.67 999.78 999.91 1000.04 1000.15 1000.23 1000.24 1000.15 999.93 999.55 999.00 998.29 997.44 996.51 995.55 994.64 993.84 993.23 992.85 992.73 992.87 993.24 993.80 994.50 995.27 996.05 996.80 997.48 998.10 998.65 999.17
999.35 999.20 999.10 999.04 999.01 999.01 999.02 999.04 999.06 999.09 999.13 999.18 999.26 999.37 999.51 999.67 999.84 999.99 1000.07 1000.06 999.91 999.61 999.13 998.49 997.72 996.86 995.96 995.11 994.38 993.81 993.47 993.37 993.52 993.88 994.43 995.11 995.86 996.62 997.36 998.04 998.68 999.27 999.83
999.07 998.95 998.88 998.85 998.84 998.84 998.84 998.84 998.82 998.81 998.81 998.84 998.90 999.02 999.18 999.38 999.60 999.81 999.97 1000.03 999.96 999.73 999.33 998.76 998.05 997.24 996.39 995.58 994.87 994.33 993.99 993.88 994.01 994.35 994.88 995.53 996.27 997.03 997.79 998.52 999.22 999.88 1000.52
998.78 998.69 998.65 998.63 998.63 998.63 998.62 998.59 998.56 998.52 998.50 998.51 998.58 998.71 998.89 999.13 999.40 999.67 999.88 1000.01 1000.00 999.83 999.48 998.97 998.31 997.55 996.75 995.97 995.29 994.75 994.41 994.29 994.40 994.72 995.22 995.86 996.60 997.39 998.19 998.99 999.76 1000.51 1001.24
998.42 998.34 998.31 998.30 998.31 998.31 998.30 998.27 998.23 998.20 998.18 998.20 998.27 998.42 998.63 998.90 999.20 999.49 999.74 999.90 999.93 999.80 999.50 999.03 998.42 997.71 996.95 996.22 995.57 995.06 994.74 994.62 994.73 995.05 995.55 996.20 996.96 997.78 998.64 999.50 1000.35 1001.18 1001.98
997.93 997.85 997.83 997.83 997.85 997.87 997.87 997.86 997.84 997.83 997.83 997.88 997.98 998.15 998.38 998.65 998.96 999.26 999.51 999.67 999.70 999.59 999.31 998.88 998.31 997.66 996.97 996.30 995.71 995.27 994.99 994.92 995.06 995.41 995.93 996.61 997.40 998.26 999.17 1000.08 1000.98 1001.86 1002.70
997.30 997.23 997.21 997.23 997.26 997.31 997.34 997.37 997.39 997.42 997.47 997.56 997.69 997.87 998.11 998.38 998.67 998.94 999.16 999.29 999.30 999.18 998.91 998.50 997.99 997.40 996.80 996.22 995.74 995.39 995.21 995.22 995.43 995.83 996.40 997.12 997.95 998.84 999.78 1000.72 1001.65 1002.54 1003.39
996.53 996.47 996.47 996.52 996.59 996.67 996.75 996.83 996.91 997.00 997.11 997.23 997.40 997.60 997.83 998.08 998.33 998.55 998.71 998.78 998.75 998.60 998.33 997.95 997.49 996.99 996.49 996.04 995.69 995.47 995.41 995.53 995.84 996.32 996.96 997.73 998.59 999.50 1000.45 1001.40 1002.32 1003.19 1003.99
995.66 995.63 995.66 995.74 995.86 995.99 996.13 996.27 996.41 996.57 996.73 996.90 997.09 997.30 997.52 997.74 997.93 998.09 998.18 998.19 998.11 997.93 997.65 997.31 996.92 996.51 996.13 995.82 995.61 995.55 995.63 995.89 996.31 996.88 997.58 998.39 999.27 1000.20 1001.13 1002.06 1002.94 1003.77 1004.51
994.73 994.74 994.81 994.93 995.09 995.27 995.47 995.67 995.88 996.09 996.30 996.52 996.73 996.95 997.15 997.33 997.47 997.57 997.60 997.55 997.43 997.23 996.97 996.67 996.35 996.05 995.80 995.64 995.59 995.68 995.91 996.30 996.82 997.48 998.24 999.08 999.97 1000.89 1001.80 1002.68 1003.51 1004.27 1004.96
993.73 993.80 993.92 994.08 994.29 994.52 994.76 995.01 995.27 995.53 995.78 996.02 996.26 996.47 996.66 996.82 996.93 996.98 996.97 996.90 996.76 996.57 996.35 996.11 995.89 995.70 995.59 995.58 995.68 995.91 996.28 996.78 997.39 998.12 998.92 999.77 1000.66 1001.55 1002.42 1003.25 1004.02 1004.73 1005.36
Thickness
5509 5509 5509 5507 5506 5507 5509 5510 5511 5512 5514 5516 5518 5520 5522 5524 5526 5526 5527 5528 5529 5531 5534 5536 5538 5538 5538 5539 5540 5541 5542 5543 5545 5551 5552 5554 5555 5556 5558 5559 5560 5561 5563
5500 5500 5499 5498 5498 5498 5500 5502 5502 5504 5506 5509 5511 5512 5515 5517 5518 5519 5520 5520 5521 5523 5526 5528 5530 5531 5532 5533 5534 5535 5536 5537 5538 5541 5543 5544 5546 5548 5549 5550 5551 5552 5553
5491 5490 5490 5489 5489 5490 5491 5493 5494 5495 5498 5501 5503 5505 5507 5509 5511 5512 5512 5513 5514 5516 5519 5521 5523 5524 5525 5528 5529 5530 5531 5531 5531 5532 5535 5536 5537 5538 5538 5540 5541 5541 5541
5481 5481 5481 5480 5480 5481 5483 5484 5486 5487 5488 5491 5494 5497 5500 5502 5503 5504 5505 5506 5508 5510 5512 5514 5517 5518 5521 5523 5524 5524 5524 5524 5524 5525 5527 5527 5527 5528 5528 5529 5530 5530 5530
5470 5471 5472 5472 5473 5473 5474 5475 5477 5479 5481 5483 5486 5489 5492 5494 5496 5498 5499 5501 5502 5504 5506 5509 5511 5514 5517 5518 5520 5519 5519 5519 5518 5519 5519 5520 5520 5519 5520 5520 5520 5519 5518
5461 5462 5463 5464 5465 5465 5466 5467 5469 5471 5473 5475 5478 5481 5484 5487 5490 5492 5494 5495 5496 5498 5501 5503 5506 5508 5511 5513 5514 5515 5516 5515 5514 5514 5514 5514 5514 5513 5512 5511 5510 5509 5508
5453 5453 5455 5455 5456 5456 5458 5460 5461 5463 5465 5468 5471 5473 5476 5479 5482 5485 5488 5489 5490 5492 5494 5497 5500 5503 5505 5506 5508 5509 5510 5511 5512 5512 5510 5510 5508 5508 5505 5503 5502 5501 5499
5444 5445 5446 5447 5448 5449 5450 5452 5454 5456 5458 5461 5464 5465 5468 5471 5474 5477 5480 5481 5482 5485 5488 5490 5493 5496 5498 5500 5501 5501 5503 5504 5506 5506 5506 5504 5502 5501 5499 5497 5495 5490 5487
5435 5437 5438 5439 5440 5442 5443 5445 5447 5450 5453 5455 5458 5460 5461 5464 5467 5470 5472 5473 5475 5478 5481 5484 5487 5489 5492 5493 5494 5494 5496 5497 5497 5498 5497 5495 5494 5493 5491 5487 5484 5482 5479
5427 5429 5431 5432 5433 5435 5436 5439 5441 5443 5446 5449 5452 5453 5455 5457 5461 5464 5466 5467 5469 5472 5475 5477 5480 5483 5484 5486 5487 5488 5488 5489 5488 5487 5486 5485 5484 5483 5482 5481 5480 5476 5472
5419 5421 5423 5424 5425 5426 5429 5431 5433 5436 5438 5440 5443 5446 5448 5452 5455 5458 5460 5461 5464 5466 5468 5470 5472 5474 5477 5478 5480 5481 5481 5481 5480 5478 5476 5475 5474 5473 5472 5471 5470 5469 5466
5410 5412 5413 5415 5417 5419 5421 5423 5426 5428 5430 5433 5435 5439 5442 5445 5449 5451 5454 5456 5457 5459 5460 5462 5465 5467 5469 5471 5473 5474 5473 5473 5472 5470 5468 5465 5464 5462 5460 5459 5458 5457 5456
5402 5403 5405 5407 5409 5411 5413 5417 5420 5422 5423 5426 5429 5432 5436 5439 5441 5445 5447 5449 5451 5453 5454 5456 5459 5460 5462 5463 5465 5465 5465 5465 5464 5462 5459 5456 5454 5452 5450 5449 5448 5446 5444
5393 5395 5397 5398 5401 5404 5407 5409 5412 5415 5417 5420 5423 5425 5428 5431 5434 5437 5439 5441 5444 5446 5447 5450 5452 5453 5454 5455 5456 5456 5457 5458 5457 5454 5450 5446 5444 5443 5442 5440 5439 5437 5434
5386 5387 5390 5392 5394 5396 5399 5401 5404 5408 5412 5415 5417 5420 5423 5425 5429 5432 5434 5436 5438 5440 5441 5443 5444 5445 5447 5447 5448 5448 5448 5448 5446 5443 5441 5439 5436 5435 5433 5431 5429 5428 5425
5379 5380 5382 5385 5388 5390 5391 5394 5398 5402 5407 5410 5413 5415 5418 5421 5424 5427 5429 5432 5434 5435 5436 5438 5439 5441 5442 5442 5441 5441 5440 5439 5438 5436 5434 5432 5430 5428 5425 5423 5421 5419 5417
5372 5373 5375 5378 5381 5383 5386 5388 5391 5395 5400 5403 5407 5410 5413 5416 5419 5421 5424 5426 5428 5429 5429 5431 5432 5434 5435 5435 5434 5434 5433 5431 5430 5428 5427 5424 5422 5420 5418 5415 5413 5410 5407
5366 5368 5370 5371 5374 5377 5379 5381 5384 5387 5390 5394 5399 5403 5407 5411 5413 5416 5418 5420 5419 5420 5421 5423 5425 5426 5427 5427 5427 5426 5425 5424 5422 5421 5419 5417 5415 5413 5410 5407 5405 5403 5400
5361 5362 5364 5366 5369 5371 5373 5375 5378 5381 5384 5388 5391 5395 5399 5404 5407 5409 5411 5412 5413 5413 5414 5416 5418 5419 5420 5420 5419 5419 5418 5417 5415 5414 5412 5410 5408 5406 5403 5400 5398 5396 5394
5356 5359 5362 5363 5364 5366 5368 5370 5373 5376 5379 5382 5385 5388 5392 5396 5399 5400 5401 5403 5405 5406 5408 5409 5410 5412 5412 5413 5413 5412 5410 5409 5408 5407 5405 5403 5401 5399 5397 5395 5392 5390 5387
5352 5355 5358 5358 5359 5361 5363 5365 5368 5370 5373 5376 5379 5382 5387 5389 5390 5392 5394 5396 5398 5400 5401 5403 5404 5405 5406 5406 5405 5405 5405 5403 5402 5401 5399 5397 5395 5393 5391 5389 5386 5384 5381
5348 5349 5351 5352 5354 5356 5358 5360 5362 5365 5367 5370 5372 5376 5381 5382 5383 5385 5387 5389 5391 5393 5395 5396 5398 5398 5399 5400 5400 5400 5399 5398 5396 5395 5393 5391 5390 5388 5386 5383 5381 5378 5375
5342 5343 5345 5346 5348 5351 5352 5354 5356 5358 5361 5363 5366 5369 5372 5374 5376 5378 5381 5383 5385 5387 5389 5390 5392 5393 5393 5394 5394 5395 5394 5393 5392 5391 5389 5387 5385 5383 5381 5379 5376 5373 5370
5336 5337 5339 5340 5342 5344 5346 5347 5349 5351 5354 5356 5359 5362 5364 5367 5370 5372 5374 5377 5380 5382 5383 5385 5386 5387 5388 5388 5388 5388 5388 5387 5386 5385 5385 5383 5380 5378 5376 5373 5371 5368 5365
5330 5331 5332 5334 5336 5337 5338 5340 5341 5344 5346 5349 5351 5355 5357 5360 5363 5366 5369 5371 5374 5376 5377 5378 5380 5381 5382 5383 5383 5383 5383 5382 5382 5380 5379 5378 5375 5373 5371 5368 5366 5363 5361
5323 5324 5325 5327 5329 5330 5331 5333 5335 5337 5339 5342 5345 5347 5351 5354 5357 5361 5363 5365 5368 5369 5371 5372 5374 5375 5377 5377 5378 5378 5378 5378 5377 5376 5375 5373 5371 5368 5366 5364 5361 5359 5356